Hourly Data Report for October 13, 2019

TORONTO CITY
ONTARIO
Current Station Operator: ECCC - MSC

43°40'00.000" N
79°24'00.000" W
112.50 m
6158355
71508
XTO

Download Data

Hourly Data (October 2019)
Hourly Data Report for October 13, 2019
TIME
LST
Temp Definition
°C
Dew Point Definition
°C
Rel Hum Definition
%
Precip. Amount Definition
mm

Wind Dir Definition
10's deg

Wind Spd Definition
km/h
Visibility Definition
km
Stn Press Definition
kPa
Hmdx Definition


Wind Chill Definition


Weather Definition


00:00 6.3 0.7 67 0.0       100.27     LegendNANA
01:00 6.9 0.8 66 0.0       100.26     LegendNANA
02:00 6.2 0.8 68 0.0       100.25     LegendNANA
03:00 5.9 1.0 70 0.0       100.21     LegendNANA
04:00 6.4 2.0 73 0.0       100.19     LegendNANA
05:00 6.2 2.1 75 0.0       100.19     LegendNANA
06:00 6.5 3.1 79 0.0       100.13     LegendNANA
07:00 9.0 6.2 83 0.0       100.13     LegendNANA
08:00 12.2 6.8 70 0.0       100.11     LegendNANA
09:00 12.6 6.3 65 0.0       100.09     LegendNANA
10:00 13.3 5.9 61 0.0       100.07     LegendNANA
11:00 13.9 5.7 58 0.0       100.00     LegendNANA
12:00 14.5 4.5 51 0.0       99.92     LegendNANA
13:00 15.0 3.6 46 0.0       99.78     LegendNANA
14:00 15.7 2.6 41 0.0       99.69     LegendNANA
15:00 16.1 0.6 35 0.0       99.61     LegendNANA
16:00 16.3 2.4 39 0.0       99.58     LegendNANA
17:00 16.4 1.7 37 0.0       99.54     LegendNANA
18:00 16.3 2.0 38 0.0       99.55     LegendNANA
19:00 15.4 3.8 46 0.0       99.55     LegendNANA
20:00 15.8 5.2 49 0.0       99.53     LegendNANA
21:00 14.9 7.0 59 0.0       99.56     LegendNANA
22:00 11.2 3.8 60 0.0       99.76     LegendNANA
23:00 10.6 1.8 54 0.0       99.70     LegendNANA

Notes on Data Quality.

Legend

  • E = Estimated
  • M = Missing
  • NA = Not Available*
  • [empty] = Indicates an unobserved value
Date modified: